Theta_e
346 341 342 343 344 345 346 348 347 350 354 349 354 354 354 352 351 351 350 352 351 337 339 340 330 327 340 339 340 339 338 337 336 336 338 337 336 330 336 335 332 337 337
349 343 339 338 341 343 343 346 346 345 346 347 347 353 350 350 351 351 349 349 352 344 329 328 327 327 326 336 340 339 338 337 337 335 337 339 338 338 331 340 338 336 336
359 358 352 342 340 338 340 341 343 343 345 345 346 347 347 347 343 346 343 335 345 345 334 330 326 328 327 328 329 339 339 338 339 338 337 338 339 339 340 339 339 337 334
359 360 359 356 342 339 338 337 339 341 342 343 345 345 346 346 345 339 338 332 332 340 342 340 338 335 327 323 326 329 337 339 340 340 338 336 339 339 339 339 340 338 338
355 358 358 358 355 352 344 338 337 338 339 340 342 345 346 346 350 346 340 338 333 336 346 346 347 342 332 327 324 325 326 335 337 339 339 338 336 337 339 339 338 337 337
353 355 357 358 358 356 352 345 342 339 340 340 341 343 345 351 355 351 348 345 347 344 340 340 344 346 338 331 326 329 334 335 333 336 337 338 338 337 337 338 337 337 335
352 355 356 357 356 355 354 353 345 342 346 344 345 345 345 344 345 349 349 347 346 351 351 352 343 350 348 342 334 331 339 339 339 339 334 336 338 338 337 338 339 338 337
353 352 357 357 357 355 353 352 356 357 354 353 352 350 348 346 346 346 347 349 348 347 350 347 346 348 351 346 339 338 340 342 342 339 338 335 334 336 340 340 337 337 336
351 352 349 359 357 357 352 358 359 355 357 358 355 354 348 346 351 348 349 352 351 348 347 345 344 347 348 348 344 342 341 342 343 343 341 337 338 340 338 336 338 337 336
341 348 354 357 358 355 354 350 351 351 350 359 359 354 349 349 351 353 355 353 352 349 347 347 350 354 353 351 349 344 344 344 346 345 343 341 338 336 334 336 335 336 334
353 355 356 356 358 355 352 352 352 354 360 359 359 359 359 358 356 351 354 345 338 341 346 345 350 353 354 352 352 351 347 348 346 346 345 342 340 339 335 334 331 332 333
347 353 356 357 356 360 356 355 357 356 357 357 359 360 361 360 359 354 343 341 339 341 344 344 350 351 353 354 353 352 352 349 345 344 343 340 340 340 335 332 333 332 329
348 352 356 358 356 358 359 359 362 360 361 361 361 361 360 360 359 358 353 351 347 351 351 355 354 354 354 354 355 354 352 349 344 340 338 334 337 337 334 333 332 331 328
352 354 358 359 358 357 362 363 362 361 361 360 360 359 360 359 357 359 358 355 351 352 349 353 352 350 347 344 349 351 349 342 336 338 339 336 333 336 334 333 332 330 325
357 359 359 361 361 362 361 362 361 361 361 361 360 360 359 358 357 356 355 353 353 349 341 338 340 340 340 350 352 351 346 339 337 334 338 336 336 335 333 332 331 326 322
358 358 359 360 362 362 361 360 361 361 360 359 357 356 357 359 358 358 359 360 359 360 357 355 355 350 350 349 349 347 345 337 336 338 339 335 334 333 332 329 325 322 323
360 358 359 359 361 361 363 360 359 359 359 359 357 357 358 359 358 354 354 356 355 354 357 356 350 341 341 344 345 341 340 336 336 337 334 333 333 330 330 325 324 323 322
358 358 357 357 357 357 357 354 355 355 354 351 350 351 351 349 346 345 341 338 344 346 343 341 339 337 335 335 335 336 336 336 335 335 333 333 331 329 325 325 325 323 322
353 354 354 355 354 353 351 349 347 346 344 341 340 336 334 335 334 332 334 337 337 339 338 335 334 334 333 332 331 331 332 333 336 334 333 331 329 328 326 325 324 323 322
344 344 347 347 346 347 346 345 343 344 343 342 341 341 339 334 332 333 335 335 335 334 336 335 334 333 334 332 334 334 333 334 334 333 331 330 328 328 326 325 323 322 319
343 344 344 344 344 344 344 344 343 342 343 341 340 338 335 336 336 335 332 332 332 330 332 333 333 332 332 333 333 333 333 332 332 331 329 328 327 326 325 324 322 319 316
342 342 342 341 341 340 340 338 338 337 337 334 334 332 332 332 334 333 334 332 332 333 335 334 333 333 334 334 334 332 332 331 330 329 327 327 326 325 324 321 319 316 313
340 340 340 339 339 339 339 338 336 337 337 336 335 334 335 334 335 334 335 335 335 334 334 334 334 335 334 333 332 331 330 329 329 328 326 326 325 323 321 319 315 313 312
337 337 336 336 336 336 336 337 335 335 335 336 336 337 337 337 336 336 337 336 335 334 332 332 332 332 332 332 331 330 328 326 326 326 325 323 322 321 319 316 313 312 312
332 332 332 333 334 334 334 333 335 334 335 336 334 333 333 332 333 333 334 333 333 333 333 332 331 330 329 327 325 324 323 323 322 322 322 321 320 318 315 314 313 312 311
325 325 325 325 326 327 327 330 330 330 329 330 331 331 331 331 329 329 329 328 328 327 326 326 325 325 324 322 321 320 319 317 315 316 317 317 316 315 314 313 312 311 311
Wind_Speed
47 47 47 47 46 43 44 42 37 33 31 29 24 25 25 25 26 26 24 21 25 24 23 23 24 20 15 14 13 12 12 11 11 9 8 10 16 14 13 15 11 9 11
47 47 49 48 47 47 46 45 43 40 38 37 32 34 30 28 29 29 29 25 28 27 27 28 29 25 25 21 17 17 15 14 14 14 10 11 14 13 13 15 11 10 11
43 43 46 49 49 49 47 45 44 42 41 39 38 37 37 33 32 33 33 32 32 33 32 31 31 29 27 26 27 20 18 20 16 16 13 13 14 12 13 13 14 13 15
39 40 43 47 49 48 47 46 45 44 42 42 42 40 39 37 35 37 38 38 38 38 36 33 31 30 30 30 28 27 22 19 17 17 15 14 14 13 13 13 14 12 11
42 43 45 46 47 46 47 45 45 46 46 44 43 43 42 41 38 40 41 43 41 40 37 36 33 35 34 32 30 29 27 27 19 16 14 15 16 16 15 13 13 13 10
41 46 44 44 44 47 47 47 46 46 47 47 47 45 45 44 40 40 39 42 41 41 42 43 39 38 37 37 35 30 29 27 24 21 21 21 20 18 17 17 15 15 16
43 40 44 44 46 46 46 47 51 52 49 50 48 46 46 48 49 46 42 41 41 40 39 37 45 38 40 39 37 35 34 34 31 28 28 24 20 19 21 19 19 19 16
39 46 41 45 44 45 45 46 44 42 45 46 46 47 47 49 48 48 47 44 44 44 41 44 47 45 42 42 39 41 41 41 38 33 31 27 28 26 18 21 23 22 18
36 43 46 41 43 44 45 41 39 39 39 41 44 45 48 50 48 47 47 46 49 50 51 52 52 50 47 47 47 45 42 43 42 40 35 31 28 23 24 23 16 15 16
33 35 37 39 41 44 42 41 39 39 39 35 39 44 47 48 47 47 43 40 42 51 57 58 53 48 46 46 51 50 50 48 42 37 34 34 34 29 27 29 22 17 19
27 28 33 37 39 40 39 38 37 36 32 36 37 40 42 43 45 48 46 43 43 57 61 57 53 48 48 50 50 52 51 44 41 33 29 26 29 27 31 31 24 25 20
29 29 31 34 35 32 37 35 35 34 34 37 37 37 34 40 42 48 45 56 50 56 59 58 50 45 42 44 46 52 53 50 41 32 27 25 28 27 34 30 21 26 22
29 32 32 32 32 32 32 34 30 30 28 28 28 29 29 29 38 45 49 53 50 49 42 33 34 38 33 33 38 50 55 50 34 33 52 41 30 28 30 25 22 24 25
29 29 28 30 30 32 25 24 24 25 26 27 25 26 25 26 28 27 32 40 48 43 45 43 40 40 36 37 40 45 59 29 42 47 37 36 32 32 29 27 28 23 22
22 20 23 22 24 22 23 23 22 22 26 23 22 20 20 23 22 29 32 31 37 33 39 39 47 47 42 40 38 39 46 21 33 33 43 39 33 29 29 30 29 20 14
18 18 19 19 20 20 24 26 27 27 27 25 22 22 19 22 24 23 24 21 24 26 32 37 40 40 40 36 36 41 44 25 35 37 40 31 30 29 34 27 21 20 17
16 17 17 18 16 19 18 17 20 26 22 25 28 30 29 30 33 32 33 36 34 27 32 35 28 24 28 28 31 32 35 31 37 43 32 27 29 34 27 27 21 19 15
16 19 17 16 16 16 13 11 13 12 11 14 22 19 20 18 18 17 14 15 14 12 16 17 19 20 13 16 13 21 26 33 34 35 27 29 35 25 26 23 19 16 15
16 14 17 16 15 15 13 11 11 11 9 7 8 9 8 9 10 11 9 3 1 5 12 6 7 13 17 15 12 17 25 31 33 27 29 26 22 22 22 20 17 17 18
15 17 14 13 13 12 10 10 9 9 8 7 5 4 10 9 7 4 5 3 6 7 10 10 11 7 10 9 12 25 22 27 25 28 23 24 24 21 19 17 18 16 18
12 14 14 12 11 10 9 7 7 6 5 5 5 9 9 6 5 6 7 6 5 6 9 9 11 10 10 11 11 12 25 25 29 27 26 23 22 19 18 18 17 17 16
13 12 12 12 12 10 7 6 6 5 5 4 2 4 7 7 5 7 6 5 5 9 8 8 9 10 10 13 17 18 20 22 24 25 22 21 20 19 18 18 17 17 16
15 13 12 11 14 14 12 11 11 10 9 9 8 8 5 4 4 4 5 6 6 7 10 11 8 8 10 16 19 20 21 21 19 21 22 20 19 19 18 18 18 17 16
23 22 22 18 15 15 14 12 8 9 9 7 8 7 4 3 4 3 4 5 6 6 4 7 10 10 12 14 15 17 16 18 20 21 20 19 19 20 18 18 18 17 17
22 23 23 17 17 17 19 19 13 10 11 8 9 9 6 2 2 4 5 5 6 7 9 11 11 15 17 16 16 16 19 20 18 17 19 18 19 19 19 18 18 18 18
20 20 20 19 18 15 12 12 11 11 12 8 7 7 7 3 6 9 5 4 7 9 9 11 13 15 17 16 16 20 18 16 18 19 15 16 17 18 18 19 19 18 17
Wind_Direction
225 224 226 229 231 231 228 231 229 229 220 220 220 230 222 218 219 224 221 221 243 237 230 229 241 227 218 233 229 229 236 237 239 247 231 233 244 239 231 253 245 247 252
223 224 227 231 233 234 234 230 234 234 236 236 229 229 233 224 222 227 230 220 230 239 237 235 240 239 230 217 229 233 231 233 236 243 239 241 256 258 241 236 235 242 254
218 220 222 228 230 233 235 234 232 234 236 238 239 234 237 236 230 231 235 233 228 239 242 241 241 241 241 235 230 232 238 232 239 240 243 246 248 251 247 251 241 251 243
218 219 221 224 229 232 233 236 235 234 235 236 238 238 238 239 239 238 238 237 237 237 243 245 246 244 245 247 239 238 226 234 237 237 244 244 244 245 245 255 257 251 254
217 219 222 227 228 226 229 232 235 235 237 237 241 241 239 240 237 239 239 242 241 240 238 246 244 247 252 248 247 241 239 233 232 244 252 256 255 249 244 253 260 262 254
217 217 220 222 226 228 228 230 231 234 235 236 239 240 240 238 234 237 242 241 241 242 242 243 244 247 251 250 247 242 246 239 234 226 237 242 245 244 248 258 266 268 270
220 219 218 220 225 228 228 228 233 233 233 236 238 240 240 241 241 239 241 243 243 239 241 239 246 242 246 247 247 245 241 243 243 245 235 232 240 248 242 245 246 251 262
220 221 220 219 221 226 229 229 227 226 230 233 235 239 241 243 243 242 241 244 249 247 243 248 249 245 238 246 248 245 243 240 242 240 247 248 243 239 245 246 251 254 267
227 225 222 218 218 223 230 224 225 228 229 231 235 237 242 242 238 241 238 237 244 249 253 252 251 246 242 243 250 250 246 244 242 238 236 242 237 239 247 254 241 256 264
246 229 224 217 219 223 226 230 232 234 235 229 232 237 240 240 238 235 232 233 242 251 254 254 250 243 240 239 243 249 248 246 236 235 238 237 238 238 237 244 244 244 255
229 225 223 219 218 225 228 229 230 230 221 230 228 235 236 235 236 236 230 235 245 253 248 249 249 244 239 244 243 243 247 242 248 243 239 239 242 248 238 237 241 243 244
228 221 220 219 217 218 220 224 223 224 226 225 232 229 235 233 234 237 236 230 248 248 251 254 245 244 244 245 246 240 235 237 243 240 234 243 250 235 231 240 246 240 233
226 217 213 214 216 206 221 215 216 222 220 228 229 234 232 235 241 242 245 244 250 248 250 245 237 237 237 246 246 240 231 225 214 237 237 228 222 241 228 238 237 234 223
219 212 205 206 210 204 212 211 211 216 222 222 225 228 233 234 238 244 250 256 253 244 253 251 245 247 252 260 253 245 223 220 270 227 223 223 218 214 215 217 218 225 217
208 204 202 202 202 201 197 204 209 213 219 224 226 229 232 237 241 246 247 249 268 272 256 255 254 255 259 258 249 234 221 252 218 218 222 217 211 208 204 209 216 215 212
195 194 197 192 194 191 204 207 203 212 217 221 222 222 225 240 246 250 249 249 264 271 272 269 266 262 262 256 248 226 228 226 219 220 220 218 217 209 194 198 198 198 204
184 186 186 186 188 189 194 203 210 215 221 222 233 241 244 255 262 266 265 265 272 274 256 263 262 249 239 235 230 232 225 218 219 218 222 216 209 190 193 187 195 203 208
170 165 164 168 172 177 188 194 191 199 207 234 241 245 248 254 259 261 262 264 256 251 253 239 221 197 194 187 197 217 222 222 221 222 214 211 194 186 182 189 199 204 212
134 146 153 147 156 161 162 155 160 164 165 162 179 205 222 252 268 263 258 221 328 235 215 234 258 272 268 267 233 212 209 215 208 200 196 185 178 182 188 196 204 208 213
145 135 134 138 138 142 149 158 163 167 174 179 170 205 265 267 235 230 194 192 199 206 231 251 258 239 219 188 192 194 203 206 213 205 182 184 185 190 196 200 205 208 217
126 119 129 124 125 131 148 157 175 174 186 224 225 223 227 189 209 238 248 249 221 212 200 208 207 219 211 215 197 210 215 215 189 183 185 184 189 195 201 207 210 213 216
118 119 128 135 137 131 137 139 139 153 160 128 83 147 178 194 214 199 237 214 189 176 186 219 230 241 244 231 226 185 179 187 186 182 185 190 195 198 204 207 211 214 210
107 114 112 109 115 113 106 101 107 114 122 124 129 125 128 176 217 229 200 189 216 219 229 231 244 234 178 165 169 169 177 185 188 188 195 193 196 201 207 209 210 209 208
104 110 96 89 107 99 98 95 99 126 117 119 110 106 115 111 146 161 183 188 192 198 190 174 168 163 169 169 174 183 186 190 192 194 194 198 201 208 206 209 209 209 210
81 87 92 83 78 82 85 84 91 79 92 104 88 96 108 122 113 167 179 177 189 189 186 182 185 184 179 178 181 185 193 194 187 195 199 204 207 211 206 209 208 209 210
76 80 81 82 84 77 82 118 119 99 72 84 90 125 124 145 126 138 162 187 201 202 200 191 191 186 180 179 185 196 201 214 221 209 202 204 207 208 209 208 210 208 212